N0HOT Weather Reports


Display with metric or nautical units.
time (UTC)temp
F
wind
direction
speed
MPH
gust
MPH
rain 1hr
in
rain 24hr
in
rain mn
in
humidity
%
barometer
mb
20260903110443 69 89 0.0 0.0 0.00 0.00 0.00 88 1011.8
20260903105937 69 89 0.0 0.0 0.00 0.00 0.00 88 1011.8
20260903105433 69 89 0.0 0.0 0.00 0.00 0.00 88 1011.5
20260903104932 69 92 0.0 0.0 0.00 0.00 0.00 88 1011.5
20260903104432 69 104 0.0 0.0 0.00 0.00 0.00 88 1011.8
20260903103929 69 123 0.0 0.0 0.00 0.00 0.00 88 1011.8
20260903103424 69 163 1.0 1.0 0.00 0.00 0.00 88 1011.5
20260903102920 69 131 0.0 0.0 0.00 0.00 0.00 88 1011.8
20260903102415 69 22 0.0 0.0 0.00 0.00 0.00 88 1011.5
20260903101914 69 351 0.0 0.0 0.00 0.00 0.00 88 1011.5
20260903101409 69 25 0.0 0.0 0.00 0.00 0.00 88 1011.1
20260903100904 69 280 1.0 2.0 0.00 0.00 0.00 88 1011.1
20260903100359 69 13 2.0 2.0 0.00 0.00 0.00 88 1011.1
20260903095856 69 39 1.0 1.0 0.00 0.00 0.00 88 1010.8
20260903095350 69 40 0.0 1.0 0.00 0.00 0.00 88 1010.8
20260903094846 69 35 0.0 1.0 0.00 0.00 0.00 88 1011.1
20260903094345 69 261 4.0 4.0 0.00 0.00 0.00 88 1011.1
20260903093842 69 33 0.0 0.0 0.00 0.00 0.00 88 1010.8
20260903093337 69 62 0.0 0.0 0.00 0.00 0.00 88 1010.8
20260903092832 69 62 0.0 0.0 0.00 0.00 0.00 88 1010.5
20260903092326 69 62 0.0 0.0 0.00 0.00 0.00 88 1010.8
20260903091825 69 62 0.0 0.0 0.00 0.00 0.00 88 1010.8
20260903091319 69 62 0.0 0.0 0.00 0.00 0.00 88 1010.5
20260903090815 69 62 0.0 0.0 0.00 0.00 0.00 88 1010.5
20260903090315 69 62 0.0 0.0 0.00 0.00 0.00 88 1010.5
20260903085813 69 62 0.0 0.0 0.00 0.00 0.00 88 1010.8
20260903085307 69 62 0.0 0.0 0.00 0.00 0.00 88 1010.8
20260903084806 69 62 0.0 0.0 0.00 0.00 0.00 88 1010.5
20260903084306 69 62 0.0 0.0 0.00 0.00 0.00 88 1010.8
20260903083756 69 62 0.0 0.0 0.00 0.00 0.00 88 1011.1
20260903083256 69 62 0.0 0.0 0.00 0.00 0.00 88 1010.8
20260903082755 69 62 0.0 0.0 0.00 0.00 0.00 88 1011.1
20260903082251 69 62 0.0 0.0 0.00 0.00 0.00 88 1010.8
20260903081751 70 62 0.0 0.0 0.00 0.00 0.00 88 1010.8
20260903081247 70 62 0.0 0.0 0.00 0.00 0.00 88 1010.8
20260903080743 70 62 0.0 0.0 0.00 0.00 0.00 88 1010.8
20260903080240 70 62 0.0 0.0 0.00 0.00 0.00 88 1010.8
20260903075740 70 62 0.0 0.0 0.00 0.00 0.00 88 1010.8
20260903075235 70 62 0.0 0.0 0.00 0.00 0.00 88 1010.8
20260903074733 70 62 0.0 0.0 0.00 0.00 0.00 88 1010.8
20260903074231 70 62 0.0 0.0 0.00 0.00 0.00 88 1010.5
20260903073724 70 62 0.0 0.0 0.00 0.00 0.00 88 1010.8
20260903073219 70 62 0.0 0.0 0.00 0.00 0.00 87 1010.8
20260903072715 70 62 0.0 0.0 0.00 0.00 0.00 87 1010.5
20260903072212 70 62 0.0 0.0 0.00 0.00 0.00 87 1010.8
20260903071707 70 62 0.0 0.0 0.00 0.00 0.00 87 1010.8
20260903071203 70 62 0.0 0.0 0.00 0.00 0.00 87 1010.5
20260903070657 70 62 0.0 0.0 0.00 0.00 0.00 87 1010.8
20260903070153 70 62 0.0 0.0 0.00 0.00 0.00 87 1011.1
20260903065653 70 62 0.0 0.0 0.00 0.00 0.00 87 1011.1
20260903065147 71 62 0.0 0.0 0.00 0.00 0.00 87 1011.1
20260903064646 71 62 0.0 0.0 0.00 0.00 0.00 87 1011.1
20260903064142 71 62 0.0 0.0 0.00 0.00 0.00 87 1011.1
20260903063637 71 62 0.0 0.0 0.00 0.00 0.00 87 1011.1
20260903063132 71 62 0.0 0.0 0.00 0.00 0.00 87 1011.1
20260903062628 71 62 0.0 0.0 0.00 0.00 0.00 87 1011.1
20260903062123 71 62 0.0 0.0 0.00 0.00 0.00 87 1011.1
20260903061618 71 62 0.0 0.0 0.00 0.00 0.00 87 1011.1
20260903061117 71 62 0.0 0.0 0.00 0.00 0.00 87 1011.5
20260903060613 71 62 0.0 0.0 0.00 0.00 0.00 87 1011.1
20260903060108 71 62 0.0 0.0 0.00 0.00 0.00 87 1011.1
20260903055606 71 62 0.0 0.0 0.00 0.00 0.00 87 1011.1
20260903055104 71 62 0.0 0.0 0.00 0.00 0.00 87 1011.1
20260903054559 71 62 0.0 0.0 0.00 0.00 0.00 87 1011.5
20260903054055 71 62 0.0 0.0 0.00 0.00 0.00 87 1011.1
20260903053550 71 62 0.0 0.0 0.00 0.00 0.00 86 1011.1
20260903053047 71 62 0.0 0.0 0.00 0.00 0.00 86 1011.1
20260903052542 71 62 0.0 0.0 0.00 0.00 0.00 86 1011.1
20260903052038 71 62 0.0 0.0 0.00 0.00 0.00 86 1011.5
20260903051537 71 62 0.0 0.0 0.00 0.00 0.00 86 1011.5
20260903051033 72 62 0.0 0.0 0.00 0.00 0.00 86 1011.5
20260903050532 72 62 0.0 0.0 0.00 0.00 0.00 86 1011.5
20260903050028 72 62 0.0 0.0 0.00 0.19 0.19 86 1011.1
20260903045527 72 62 0.0 0.0 0.00 0.19 0.19 86 1011.5
20260903045024 72 62 0.0 0.0 0.00 0.19 0.19 85 1011.8
20260903044519 72 62 0.0 0.0 0.00 0.19 0.19 85 1011.8
20260903044015 72 62 0.0 0.0 0.00 0.19 0.19 85 1011.5
20260903043510 72 62 0.0 0.0 0.00 0.19 0.19 85 1011.5
20260903043010 72 62 0.0 0.0 0.00 0.19 0.19 85 1011.5
20260903042504 72 62 0.0 0.0 0.00 0.19 0.19 85 1011.5
20260903042000 72 62 0.0 0.0 0.00 0.19 0.19 84 1011.5
20260903041457 72 62 0.0 0.0 0.00 0.19 0.19 84 1011.5
20260903040952 72 62 0.0 0.0 0.00 0.19 0.19 84 1011.5
20260903040450 73 62 0.0 0.0 0.00 0.19 0.19 83 1011.8
20260903035947 73 62 0.0 0.0 0.00 0.19 0.19 83 1011.5
20260903035442 73 62 0.0 0.0 0.00 0.19 0.19 83 1011.8
20260903034937 73 62 0.0 0.0 0.00 0.19 0.19 82 1011.5
20260903034432 73 62 0.0 0.0 0.00 0.19 0.19 82 1011.8
20260903033927 73 62 0.0 0.0 0.00 0.19 0.19 81 1011.8
20260903033422 73 62 0.0 0.0 0.00 0.19 0.19 81 1011.5
20260903032918 73 62 0.0 0.0 0.00 0.19 0.19 81 1011.8
20260903032413 73 62 0.0 0.0 0.00 0.19 0.19 81 1011.8
20260903031908 74 62 0.0 0.0 0.00 0.19 0.19 81 1011.8
20260903031407 74 62 0.0 0.0 0.00 0.19 0.19 80 1011.8
20260903030903 74 62 0.0 0.0 0.00 0.19 0.19 80 1011.8
20260903030359 74 62 0.0 0.0 0.00 0.19 0.19 79 1011.8
20260903025855 74 62 0.0 0.0 0.00 0.19 0.19 79 1011.5
20260903025350 74 62 0.0 0.0 0.00 0.19 0.19 78 1011.8
20260903024850 74 62 0.0 0.0 0.00 0.19 0.19 78 1011.8
20260903024344 75 62 0.0 0.0 0.00 0.19 0.19 77 1011.8
20260903023839 75 62 0.0 0.0 0.00 0.19 0.19 77 1011.8
20260903023335 75 62 0.0 0.0 0.00 0.19 0.19 77 1011.8
20260903022830 75 62 0.0 0.0 0.00 0.19 0.19 76 1011.8
20260903022329 75 62 0.0 0.0 0.00 0.19 0.19 76 1011.8
20260903021822 75 62 0.0 0.0 0.00 0.19 0.19 75 1011.5
20260903021319 75 62 0.0 0.0 0.00 0.19 0.19 75 1011.8
20260903020818 75 62 0.0 0.0 0.00 0.19 0.19 75 1011.8
20260903020313 76 62 0.0 0.0 0.00 0.19 0.19 74 1011.5
20260903015808 76 62 0.0 0.0 0.00 0.19 0.19 74 1011.8
20260903015306 76 62 0.0 1.0 0.00 0.19 0.19 73 1011.5
20260903014759 76 62 0.0 0.0 0.00 0.19 0.19 73 1011.5
20260903014258 77 62 0.0 0.0 0.00 0.19 0.19 72 1011.5
20260903013754 77 62 0.0 0.0 0.00 0.19 0.19 72 1011.1
20260903013252 77 62 0.0 0.0 0.00 0.19 0.19 72 1011.5
20260903012751 77 62 0.0 0.0 0.00 0.19 0.19 72 1011.1
20260903012246 78 62 0.0 0.0 0.00 0.19 0.19 71 1011.1
20260903011745 78 62 0.0 0.0 0.00 0.19 0.19 71 1011.1
20260903011244 78 62 0.0 0.0 0.00 0.19 0.19 70 1011.1
20260903010740 78 62 0.0 0.0 0.00 0.19 0.19 69 1011.1
20260903010236 79 62 0.0 0.0 0.00 0.19 0.19 69 1010.8
20260903005734 79 62 0.0 0.0 0.00 0.19 0.19 68 1011.1
20260903005229 79 62 0.0 0.0 0.00 0.19 0.19 68 1010.8
20260903004725 79 62 0.0 0.0 0.00 0.19 0.19 68 1011.1
20260903004220 80 62 0.0 0.0 0.00 0.19 0.19 68 1010.8
20260903003715 80 62 0.0 1.0 0.00 0.19 0.19 67 1011.1
20260903003211 80 62 0.0 0.0 0.00 0.19 0.19 67 1011.1
20260903002705 81 62 0.0 1.0 0.00 0.19 0.19 67 1011.1
20260903002159 81 62 0.0 1.0 0.00 0.19 0.19 66 1011.1
20260903001655 82 62 1.0 1.0 0.00 0.19 0.19 65 1010.8
20260903001149 82 62 1.0 1.0 0.00 0.19 0.19 64 1010.8
20260903000645 83 62 1.0 1.0 0.00 0.19 0.19 63 1011.1
20260903000144 83 62 0.0 0.0 0.00 0.19 0.19 62 1011.1
20260902235643 83 62 0.0 0.0 0.00 0.19 0.19 63 1011.1
20260902235138 84 62 0.0 0.0 0.00 0.19 0.19 63 1010.8
20260902234638 84 62 0.0 0.0 0.00 0.19 0.19 63 1011.1
20260902234136 84 62 0.0 0.0 0.00 0.19 0.19 63 1010.8
20260902233631 84 62 0.0 0.0 0.00 0.19 0.19 62 1010.8
20260902233125 85 62 0.0 0.0 0.00 0.19 0.19 62 1011.1
20260902232620 85 62 0.0 0.0 0.00 0.19 0.19 62 1011.1
20260902232119 85 62 0.0 0.0 0.00 0.19 0.19 59 1010.8
20260902231618 85 62 0.0 0.0 0.00 0.19 0.19 56 1010.8
20260902231113 85 62 0.0 0.0 0.00 0.19 0.19 56 1010.5
20260902230609 85 62 0.0 0.0 0.00 0.19 0.19 58 1010.5
20260902230107 86 62 0.0 0.0 0.00 0.19 0.19 57 1010.5
20260902225602 86 62 0.0 0.0 0.00 0.19 0.19 58 1010.5
20260902225102 86 62 0.0 0.0 0.00 0.19 0.19 57 1010.5
20260902224601 86 62 0.0 0.0 0.00 0.19 0.19 57 1010.8
20260902224057 87 62 0.0 0.0 0.00 0.19 0.19 56 1010.8
20260902223553 87 62 0.0 0.0 0.00 0.19 0.19 57 1010.8
20260902223052 87 62 0.0 0.0 0.00 0.19 0.19 56 1011.1
20260902222550 87 63 0.0 1.0 0.00 0.19 0.19 54 1010.8
20260902222049 87 16 0.0 0.0 0.00 0.19 0.19 56 1010.8
20260902221544 87 10 0.0 0.0 0.00 0.19 0.19 55 1010.8
20260902221039 88 278 0.0 1.0 0.00 0.19 0.19 55 1011.1
20260902220534 88 304 1.0 2.0 0.00 0.19 0.19 54 1011.1
20260902220029 89 285 2.0 2.0 0.00 0.19 0.19 54 1011.1
20260902215525 89 343 1.0 1.0 0.00 0.19 0.19 55 1011.1
20260902215020 89 267 0.0 0.0 0.00 0.19 0.19 53 1011.1
20260902214520 90 259 2.0 2.0 0.00 0.19 0.19 50 1011.1
20260902214019 89 305 0.0 0.0 0.00 0.19 0.19 50 1010.8
20260902213515 89 287 1.0 1.0 0.00 0.19 0.19 52 1010.8
20260902213014 89 324 0.0 0.0 0.00 0.19 0.19 55 1010.8
20260902212510 90 310 1.0 1.0 0.00 0.19 0.19 53 1010.8
20260902212006 90 97 1.0 1.0 0.00 0.19 0.19 50 1011.1
20260902211502 90 273 2.0 2.0 0.00 0.19 0.19 54 1011.1
20260902210956 91 270 2.0 3.0 0.00 0.19 0.19 52 1011.1
20260902210451 90 251 0.0 0.0 0.00 0.19 0.19 54 1011.1
20260902205950 90 294 1.0 1.0 0.00 0.19 0.19 53 1011.1
20260902205450 90 67 1.0 1.0 0.00 0.19 0.19 53 1011.1
20260902204945 90 60 0.0 1.0 0.00 0.19 0.19 52 1011.1
20260902204445 90 222 0.0 1.0 0.00 0.19 0.19 52 1011.1
20260902203940 89 164 0.0 0.0 0.00 0.19 0.19 54 1011.5
20260902203436 89 269 1.0 2.0 0.00 0.19 0.19 53 1011.1
20260902202935 89 289 1.0 1.0 0.00 0.19 0.19 55 1011.1
20260902202431 89 304 1.0 1.0 0.00 0.19 0.19 55 1011.5
20260902201928 89 297 1.0 1.0 0.00 0.19 0.19 52 1011.5
20260902201423 89 327 1.0 1.0 0.00 0.19 0.19 53 1011.5
20260902200923 89 266 2.0 2.0 0.00 0.19 0.19 53 1011.5
20260902200418 88 263 1.0 1.0 0.00 0.19 0.19 52 1011.1
20260902195913 88 283 2.0 2.0 0.00 0.19 0.19 55 1011.8
20260902195408 88 273 1.0 2.0 0.00 0.19 0.19 55 1011.5
20260902194902 87 264 0.0 1.0 0.00 0.19 0.19 55 1011.8
20260902194402 87 278 1.0 2.0 0.00 0.19 0.19 55 1011.5
20260902193857 87 300 2.0 2.0 0.00 0.19 0.19 55 1011.8
20260902193354 87 326 1.0 1.0 0.00 0.19 0.19 55 1012.2
20260902192852 87 315 1.0 2.0 0.00 0.19 0.19 56 1012.2
20260902192351 87 294 2.0 3.0 0.00 0.19 0.19 55 1012.2
20260902191845 86 289 1.0 1.0 0.00 0.19 0.19 56 1011.8
20260902191341 86 248 1.0 1.0 0.00 0.19 0.19 56 1012.2
20260902190836 86 3 2.0 2.0 0.00 0.19 0.19 54 1012.2
20260902190335 86 323 0.0 0.0 0.00 0.19 0.19 57 1012.2
20260902185832 85 340 2.0 2.0 0.00 0.19 0.19 56 1012.2
20260902185326 85 281 1.0 1.0 0.00 0.19 0.19 59 1012.2
20260902184822 85 10 0.0 0.0 0.00 0.19 0.19 59 1012.5
20260902184318 84 263 1.0 2.0 0.00 0.19 0.19 60 1012.5
20260902183813 84 258 0.0 0.0 0.00 0.19 0.19 59 1012.5
20260902183309 84 179 0.0 1.0 0.00 0.19 0.19 63 1012.5
20260902182805 83 209 1.0 2.0 0.00 0.19 0.19 62 1012.5
20260902182301 83 214 1.0 2.0 0.00 0.19 0.19 63 1012.5
20260902181757 83 261 1.0 1.0 0.00 0.19 0.19 64 1012.8
20260902181252 83 139 1.0 1.0 0.00 0.19 0.19 64 1012.5
20260902180746 83 246 0.0 1.0 0.00 0.19 0.19 65 1012.5
20260902180242 83 260 2.0 2.0 0.00 0.19 0.19 63 1012.5
20260902175737 83 283 2.0 2.0 0.00 0.19 0.19 66 1012.5
20260902175233 83 254 1.0 1.0 0.00 0.19 0.19 66 1012.8
20260902174728 83 274 2.0 2.0 0.00 0.19 0.19 66 1012.5
20260902174224 83 265 1.0 2.0 0.00 0.19 0.19 67 1012.8
20260902173720 83 94 1.0 1.0 0.00 0.19 0.19 66 1012.5
20260902173219 82 281 0.0 1.0 0.00 0.19 0.19 64 1012.5
20260902172714 82 117 1.0 1.0 0.00 0.19 0.19 63 1012.8
20260902172214 82 262 1.0 2.0 0.00 0.19 0.19 68 1012.5
20260902171709 81 187 0.0 1.0 0.00 0.19 0.19 68 1012.8
20260902171204 81 265 2.0 2.0 0.00 0.19 0.19 69 1012.5
20260902170701 81 129 0.0 0.0 0.00 0.19 0.19 69 1012.5
20260902170155 80 92 0.0 0.0 0.00 0.19 0.19 69 1012.8
20260902165650 80 84 1.0 1.0 0.00 0.19 0.19 69 1013.2
20260902165144 78 83 1.0 1.0 0.00 0.19 0.19 69 1013.2
20260902164640 77 259 0.0 1.0 0.00 0.19 0.19 73 1013.2
20260902164138 76 254 1.0 1.0 0.00 0.19 0.19 76 1013.2
20260902163634 75 78 1.0 1.0 0.00 0.19 0.19 80 1012.8
20260902163133 74 50 0.0 0.0 0.00 0.19 0.19 81 1012.8
20260902162632 73 50 0.0 0.0 0.00 0.19 0.19 85 1012.8
20260902162126 73 48 0.0 1.0 0.00 0.19 0.19 87 1012.8
20260902161622 73 49 1.0 1.0 0.00 0.19 0.19 88 1013.2
20260902161118 73 2 0.0 0.0 0.00 0.19 0.19 88 1013.2
20260902160608 72 10 0.0 1.0 0.00 0.19 0.19 88 1012.8
20260902160103 72 97 0.0 0.0 0.00 0.19 0.19 89 1013.2
20260902155601 72 120 0.0 0.0 0.00 0.19 0.19 89 1013.2
20260902155100 72 281 0.0 0.0 0.00 0.19 0.19 89 1013.2
20260902154555 71 74 0.0 0.0 0.00 0.19 0.19 89 1013.2
20260902154050 71 75 0.0 0.0 0.00 0.19 0.19 89 1013.2
20260902153549 71 74 0.0 1.0 0.00 0.19 0.19 89 1013.6
20260902153045 71 74 0.0 0.0 0.00 0.19 0.19 89 1013.2
20260902152541 71 74 0.0 0.0 0.00 0.19 0.19 89 1013.2
20260902152036 70 74 0.0 0.0 0.00 0.19 0.19 89 1013.2
20260902151532 70 74 0.0 1.0 0.00 0.19 0.19 89 1013.2
20260902151031 70 74 0.0 0.0 0.00 0.19 0.19 89 1012.8
20260902150526 70 75 0.0 0.0 0.00 0.19 0.19 89 1013.2
20260902150022 70 74 0.0 0.0 0.00 0.19 0.19 89 1013.2
20260902145516 70 75 0.0 0.0 0.00 0.19 0.19 89 1013.2
20260902145011 70 75 0.0 0.0 0.00 0.19 0.19 89 1013.2
20260902144508 69 75 0.0 0.0 0.00 0.19 0.19 89 1013.2
20260902144002 69 75 0.0 0.0 0.00 0.19 0.19 89 1013.2
20260902143457 69 75 0.0 0.0 0.00 0.19 0.19 89 1013.2
20260902142953 69 75 0.0 0.0 0.00 0.19 0.19 89 1013.2
20260902142448 69 75 0.0 0.0 0.00 0.19 0.19 89 1013.2
20260902141943 68 75 0.0 0.0 0.00 0.19 0.19 89 1013.2
20260902141438 68 75 1.0 1.0 0.00 0.19 0.19 89 1013.2
20260902140938 68 75 0.0 0.0 0.00 0.19 0.19 89 1013.2
20260902140433 68 75 0.0 0.0 0.00 0.19 0.19 89 1013.2
20260902135933 68 74 0.0 0.0 0.00 0.19 0.19 89 1012.8
20260902135429 68 75 0.0 0.0 0.00 0.19 0.19 89 1013.2
20260902134927 68 75 0.0 0.0 0.00 0.19 0.19 89 1013.2
20260902134424 68 75 0.0 0.0 0.00 0.19 0.19 89 1013.6
20260902133918 68 75 0.0 0.0 0.00 0.19 0.19 89 1013.9
20260902133413 68 75 0.0 0.0 0.00 0.19 0.19 89 1013.9
20260902132908 67 75 0.0 1.0 0.00 0.19 0.19 89 1013.6
20260902132403 67 75 0.0 0.0 0.00 0.19 0.19 89 1013.9
20260902131858 67 75 0.0 0.0 0.00 0.19 0.19 89 1014.3
20260902131355 67 75 0.0 0.0 0.00 0.19 0.19 89 1013.9
20260902130854 66 75 0.0 0.0 0.00 0.19 0.19 89 1013.9
20260902130350 66 75 0.0 0.0 0.00 0.19 0.19 89 1014.3
20260902125845 66 75 1.0 1.0 0.00 0.19 0.19 89 1014.3
20260902125341 66 90 0.0 0.0 0.00 0.19 0.19 89 1014.3
20260902124837 66 90 0.0 0.0 0.00 0.19 0.19 89 1013.9
20260902124333 66 90 0.0 0.0 0.00 0.19 0.19 89 1014.3
20260902123827 66 91 0.0 0.0 0.00 0.19 0.19 89 1014.3
20260902123324 66 91 0.0 0.0 0.00 0.19 0.19 89 1013.9
20260902122822 66 91 0.0 0.0 0.00 0.19 0.19 89 1013.6
20260902122318 66 91 0.0 0.0 0.00 0.19 0.19 89 1013.6
20260902121818 66 91 0.0 0.0 0.00 0.19 0.19 89 1013.6
20260902121313 66 98 0.0 0.0 0.00 0.19 0.19 89 1013.2
20260902120808 66 99 0.0 0.0 0.00 0.19 0.19 89 1013.6
20260902120305 66 209 0.0 1.0 0.00 0.19 0.19 89 1014.3
20260902115759 66 238 0.0 1.0 0.00 0.19 0.19 89 1013.9
20260902115256 66 233 1.0 1.0 0.00 0.19 0.19 89 1012.8
20260902114752 66 110 0.0 0.0 0.00 0.19 0.19 89 1012.8
20260902114248 67 110 0.0 0.0 0.00 0.19 0.19 89 1013.2
20260902113748 67 345 1.0 2.0 0.00 0.19 0.19 89 1012.5
20260902113243 67 37 0.0 0.0 0.00 0.19 0.19 89 1012.5
20260902112742 67 38 0.0 0.0 0.07 0.19 0.19 89 1012.8
20260902112240 67 38 0.0 1.0 0.07 0.19 0.19 89 1013.2
20260902111735 67 38 0.0 0.0 0.05 0.18 0.18 89 1013.6
20260902111231 67 38 0.0 0.0 0.12 0.18 0.18 89 1013.9
20260902110726 67 34 1.0 1.0 0.07 0.17 0.17 89 1014.3